VK2RZ Weather Reports


time (UTC)temp
F
wind
direction
speed
knots
gust
knots
rain 1hr
in
rain 24hr
in
rain mn
in
humidity
%
barometer
mb
20260901193422 61 0 0.0 0.0 0.00 0.00 0.00 6 1016.6
20260901192422 61 0 0.0 0.0 0.00 0.00 0.00 6 1016.4
20260901191422 61 0 0.0 1.7 0.00 0.00 0.00 6 1016.6
20260901185422 61 185 2.6 4.3 0.00 0.00 0.00 6 1015.9
20260901184422 60 185 1.7 4.3 0.00 0.00 0.00 6 1016.0
20260901183422 60 0 0.0 2.6 0.00 0.00 0.00 6 1016.0
20260901182423 59 189 0.9 2.6 0.00 0.00 0.00 7 1015.9
20260901181422 58 0 0.0 0.9 0.00 0.00 0.00 7 1015.9
20260901180423 59 0 0.0 0.0 0.00 0.00 0.00 7 1015.8
20260901175422 59 189 0.9 3.5 0.00 0.00 0.00 7 1016.0
20260901174422 59 189 0.9 2.6 0.00 0.00 0.00 6 1015.9
20260901173422 59 0 0.0 0.0 0.00 0.00 0.00 6 1016.1
20260901172422 59 0 0.0 0.0 0.00 0.00 0.00 6 1016.2
20260901170422 58 0 0.0 0.0 0.00 0.00 0.00 6 1016.4
20260901165422 60 0 0.0 2.6 0.00 0.00 0.00 6 1016.4
20260901164422 60 189 1.7 2.6 0.00 0.00 0.00 6 1016.8
20260901162422 61 0 0.0 0.0 0.00 0.00 0.00 6 1016.9
20260901161422 61 189 1.7 3.5 0.00 0.00 0.00 6 1016.8
20260901160421 61 0 0.0 2.6 0.00 0.00 0.00 6 1016.9
20260901155420 61 0 0.0 2.6 0.00 0.00 0.00 6 1017.0
20260901153420 60 189 0.9 6.1 0.00 0.00 0.00 6 1017.0
20260901152420 60 199 0.9 4.3 0.00 0.00 0.00 6 1017.1
20260901151420 60 216 1.7 3.5 0.00 0.00 0.00 6 1017.2
20260901150421 60 253 1.7 3.5 0.00 0.00 0.00 6 1017.4
20260901145420 60 255 0.9 2.6 0.00 0.00 0.00 6 1017.5
20260901144420 61 256 1.7 2.6 0.00 0.00 0.00 6 1017.7
20260901143420 60 0 0.0 0.0 0.00 0.00 0.00 6 1017.9
20260901142420 61 0 0.0 0.0 0.00 0.00 0.00 6 1018.0
20260901141420 61 0 0.0 0.0 0.00 0.00 0.00 6 1018.0
20260901140420 62 0 0.0 1.7 0.00 0.00 0.00 6 1018.2
20260901135420 61 0 0.0 1.7 0.00 0.00 0.00 6 1018.3
20260901134419 60 0 0.0 0.0 0.00 0.00 0.00 6 1018.4
20260901133419 61 0 0.0 0.0 0.00 0.00 0.00 6 1018.3
20260901132418 61 0 0.0 0.0 0.00 0.00 0.00 6 1018.3
20260901131418 61 0 0.0 0.0 0.00 0.00 0.00 6 1018.5
20260901130418 61 0 0.0 1.7 0.00 0.00 0.00 6 1018.3
20260901125418 62 0 0.0 2.6 0.00 0.00 0.00 6 1018.4
20260901124418 61 0 0.0 1.7 0.00 0.00 0.00 6 1018.5
20260901123418 62 0 0.0 1.7 0.00 0.00 0.00 6 1018.5
20260901122418 62 262 0.9 2.6 0.00 0.00 0.00 6 1018.5
20260901120418 62 285 0.9 2.6 0.00 0.00 0.00 6 1018.9
20260901115419 62 0 0.0 1.7 0.00 0.00 0.00 6 1019.2
20260901114419 61 0 0.0 1.7 0.00 0.00 0.00 6 1019.4
20260901113418 62 285 1.7 1.7 0.00 0.00 0.00 5 1019.6
20260901112418 64 286 1.7 2.6 0.00 0.00 0.00 5 1019.8
20260901110418 64 0 0.0 0.0 0.00 0.00 0.00 5 1020.0
20260901105418 63 0 0.0 0.0 0.00 0.00 0.00 5 1020.0
20260901104419 63 0 0.0 0.9 0.00 0.00 0.00 5 1020.1
20260901103418 62 286 0.9 2.6 0.00 0.00 0.00 5 1020.1
20260901102418 63 0 0.0 0.0 0.00 0.00 0.00 5 1020.1
20260901101418 64 286 0.9 1.7 0.00 0.00 0.00 5 1020.1
20260901100419 66 286 0.9 3.5 0.00 0.00 0.00 5 1020.2
20260901095417 66 285 0.9 2.6 0.00 0.00 0.00 4 1020.1
20260901094418 66 286 0.9 5.2 0.00 0.00 0.00 4 1020.1
20260901093417 67 287 0.9 1.7 0.00 0.00 0.00 4 1020.2
20260901092418 67 287 0.9 5.2 0.00 0.00 0.00 4 1020.1
20260901091422 67 287 1.7 5.2 0.00 0.00 0.00 4 1020.0
20260901085420 68 290 1.7 3.5 0.00 0.00 0.00 4 1019.8
20260901084421 68 297 1.7 2.6 0.00 0.00 0.00 4 1019.8
20260901083421 68 297 1.7 5.2 0.00 0.00 0.00 4 1019.8
20260901082420 69 273 3.5 5.2 0.00 0.00 0.00 4 1019.7
20260901081421 69 270 1.7 3.5 0.00 0.00 0.00 4 1019.7
20260901080417 70 270 0.9 3.5 0.00 0.00 0.00 4 1019.6
20260901075421 69 270 3.5 3.5 0.00 0.00 0.00 4 1019.5
20260901074421 70 267 2.6 2.6 0.00 0.00 0.00 4 1019.2
20260901072421 71 272 1.7 2.6 0.00 0.00 0.00 4 1019.0
20260901071420 72 271 1.7 3.5 0.00 0.00 0.00 4 1019.0
20260901070420 73 269 3.5 3.5 0.00 0.00 0.00 4 1018.8
20260901065421 73 270 0.9 3.5 0.00 0.00 0.00 4 1019.0
20260901064421 74 271 1.7 7.0 0.00 0.00 0.00 3 1018.9
20260901063422 75 252 2.6 6.1 0.00 0.00 0.00 3 1018.9
20260901062421 75 268 1.7 7.0 0.00 0.00 0.00 3 1018.9
20260901061421 75 231 1.7 8.7 0.00 0.00 0.00 3 1018.9
20260901060421 72 244 0.9 7.0 0.00 0.00 0.00 4 1018.9
20260901055421 71 58 0.9 2.6 0.00 0.00 0.00 6 1019.0
20260901053420 71 63 2.6 4.3 0.00 0.00 0.00 6 1019.2
20260901052417 71 0 0.0 3.5 0.00 0.00 0.00 6 1019.1
20260901051417 71 0 0.0 1.7 0.00 0.00 0.00 6 1019.4
20260901050420 71 58 2.6 4.3 0.00 0.00 0.00 6 1019.4
20260901045417 71 62 0.9 3.5 0.00 0.00 0.00 6 1019.5
20260901044421 70 49 4.3 6.1 0.00 0.00 0.00 6 1019.6
20260901043416 70 33 6.1 8.7 0.00 0.00 0.00 6 1019.7
20260901042416 70 46 2.6 7.8 0.00 0.00 0.00 6 1019.7
20260901041416 70 43 2.6 7.8 0.00 0.00 0.00 6 1019.9
20260901040416 69 79 2.6 7.0 0.00 0.00 0.00 6 1019.9
20260901035416 69 101 2.6 6.1 0.00 0.00 0.00 6 1020.1
20260901034416 69 83 1.7 7.0 0.00 0.00 0.00 6 1020.1
20260901033416 69 79 5.2 7.0 0.00 0.00 0.00 6 1020.3
20260901032416 69 74 3.5 7.8 0.00 0.00 0.00 6 1020.6
20260901031416 69 75 7.0 7.8 0.00 0.00 0.00 6 1020.8
20260901030416 69 33 1.7 7.0 0.00 0.00 0.00 6 1021.1
20260901025416 69 87 2.6 10.4 0.00 0.00 0.00 6 1021.2
20260901024416 70 86 5.2 8.7 0.00 0.00 0.00 6 1021.3
20260901023416 71 39 8.7 8.7 0.00 0.00 0.00 6 1021.7
20260901022416 74 110 0.9 6.1 0.00 0.00 0.00 4 1021.9
20260901021416 72 91 1.7 5.2 0.00 0.00 0.00 6 1022.3
20260901020415 71 98 1.7 7.0 0.00 0.00 0.00 6 1022.6
20260901015415 73 91 7.8 9.6 0.00 0.00 0.00 5 1022.7
20260901014415 72 79 5.2 7.0 0.00 0.00 0.00 5 1023.0
20260901013415 72 47 2.6 6.1 0.00 0.00 0.00 5 1023.2
20260901012415 72 41 2.6 6.1 0.00 0.00 0.00 5 1023.4
20260901011415 71 83 1.7 6.1 0.00 0.00 0.00 5 1023.8
20260901010415 71 35 2.6 6.1 0.00 0.00 0.00 5 1024.0
20260901005415 71 27 5.2 5.2 0.00 0.00 0.00 5 1024.3
20260901004415 71 6 0.9 7.0 0.00 0.00 0.00 5 1024.4
20260901003415 69 52 1.7 3.5 0.00 0.00 0.00 5 1024.6
20260901002415 69 0 0.0 2.6 0.00 0.00 0.00 5 1024.9
20260901001415 69 40 2.6 2.6 0.00 0.00 0.00 6 1024.9
20260901000415 67 31 2.6 5.2 0.00 0.00 0.00 6 1025.2
20260831235414 67 16 5.2 7.0 0.00 0.00 0.00 6 1025.4
20260831234414 66 16 0.9 5.2 0.00 0.00 0.00 6 1025.7
20260831233414 65 47 1.7 5.2 0.00 0.00 0.00 6 1025.8
20260831232414 64 37 1.7 6.1 0.00 0.00 0.00 6 1026.0
20260831231414 63 6 2.6 2.6 0.00 0.00 0.00 6 1026.3
20260831230414 63 4 0.9 3.5 0.00 0.00 0.00 6 1026.3
20260831225414 62 358 2.6 3.5 0.00 0.00 0.00 7 1026.4
20260831224414 62 347 0.9 2.6 0.00 0.00 0.00 7 1026.4
20260831223414 61 0 0.0 0.0 0.00 0.00 0.00 7 1026.6
20260831222414 61 0 0.0 3.5 0.00 0.00 0.00 7 1026.8
20260831221414 60 0 0.0 3.5 0.00 0.00 0.00 7 1027.0
20260831220414 59 0 0.0 2.6 0.00 0.00 0.00 7 1026.9
20260831215414 59 335 1.7 1.7 0.00 0.00 0.00 7 1027.0
20260831214414 58 0 0.0 2.6 0.00 0.00 0.00 7 1026.9
20260831213414 58 335 1.7 2.6 0.00 0.00 0.00 7 1027.0
20260831212414 58 334 2.6 2.6 0.00 0.00 0.00 7 1026.9
20260831211414 57 333 1.7 3.5 0.00 0.00 0.00 7 1026.9
20260831210414 57 337 1.7 4.3 0.00 0.00 0.00 7 1026.8
20260831205414 56 338 2.6 4.3 0.00 0.00 0.00 7 1026.8
20260831204414 55 0 0.0 0.0 0.00 0.00 0.00 7 1026.7
20260831203414 54 0 0.0 0.0 0.00 0.00 0.00 7 1026.7
20260831202414 53 0 0.0 0.0 0.00 0.00 0.00 7 1026.6
20260831201414 53 0 0.0 0.0 0.00 0.00 0.00 7 1026.6
20260831200414 54 0 0.0 0.0 0.00 0.00 0.00 7 1026.6
20260831195414 53 0 0.0 0.0 0.00 0.00 0.00 7 1026.6
20260831194414 54 0 0.0 0.0 0.00 0.00 0.00 7 1026.6